HB9TUF-13 Weather Reports


Display with metric or nautical units.
time (UTC)temp
F
wind
direction
speed
MPH
gust
MPH
rain 1hr
in
rain 24hr
in
rain mn
in
humidity
%
barometer
mb
20260507170408 64 135 0.0 0.0 0.00 0.18 0.00 100
20260507164824 66 135 0.0 0.0 0.00 0.19 0.00 100
20260507163242 66 135 0.0 0.0 0.00 0.19 0.00 100
20260507161659 68 135 0.0 0.0 0.00 0.20 0.00 100
20260507160116 69 135 0.0 0.0 0.00 0.21 0.00 100
20260507152950 73 134 0.0 0.0 0.00 0.23 0.00 100
20260507151407 71 133 0.0 0.0 0.00 0.22 0.00 100
20260507145824 71 133 0.0 0.0 0.00 0.22 0.00 100
20260507144241 69 132 0.0 0.0 0.00 0.21 0.00 100
20260507142658 71 132 0.0 0.0 0.00 0.22 0.00 100
20260507141115 69 132 0.0 0.0 0.00 0.21 0.00 100
20260507135532 69 132 0.0 0.0 0.00 0.21 0.00 100
20260507133949 71 132 0.0 0.0 0.00 0.22 0.00 100
20260507132406 69 134 0.0 0.0 0.00 0.21 0.00 100
20260507130823 60 135 0.0 0.0 0.00 0.16 0.00 100
20260507123656 69 134 0.0 0.0 0.00 0.21 0.00 100
20260507114945 60 135 0.0 0.0 0.00 0.16 0.00 100
20260507113402 59 135 0.0 0.0 0.00 0.15 0.00 100
20260507111818 62 135 0.0 0.0 0.00 0.17 0.00 100
20260507110234 60 135 0.0 0.0 0.00 0.16 0.00 100
20260507103106 57 136 0.0 0.0 0.00 0.14 0.00 100
20260507101523 57 136 0.0 0.0 0.00 0.14 0.00 100
20260507094355 55 137 0.0 0.0 0.00 0.13 0.00 100
20260507092811 57 137 0.0 0.0 0.00 0.14 0.00 100
20260507085644 55 142 0.0 0.0 0.00 0.13 0.00 100
20260507084059 53 143 0.0 0.0 0.00 0.12 0.00 100
20260507082515 53 143 0.0 0.0 0.00 0.12 0.00 100
20260507080931 51 144 0.0 0.0 0.00 0.11 0.00 100
20260507075346 51 144 0.0 0.0 0.00 0.11 0.00 100
20260507073801 50 144 0.0 0.0 0.00 0.10 0.00 100
20260507072216 50 141 0.0 0.0 0.00 0.10 0.00 100
20260507070632 50 138 0.0 0.0 0.00 0.10 0.00 100
20260507065047 50 138 0.0 0.0 0.00 0.10 0.00 100
20260507063502 48 137 0.0 0.0 0.00 0.09 0.00 100
20260507060331 48 130 0.0 0.0 0.00 0.09 0.00 100
20260507054746 48 131 0.0 0.0 0.00 0.09 0.00 100
20260507053201 48 128 0.0 0.0 0.00 0.09 0.00 100
20260507051616 48 126 0.0 0.0 0.00 0.09 0.00 100
20260507050031 46 125 0.0 0.0 0.00 0.08 0.00 100
20260507044445 46 125 0.0 0.0 0.00 0.08 0.00 100
20260507042900 46 124 0.0 0.0 0.00 0.08 0.00 100
20260507041315 46 124 0.0 0.0 0.00 0.08 0.00 100
20260507035730 46 124 0.0 0.0 0.00 0.08 0.00 100
20260507034145 46 124 0.0 0.0 0.00 0.08 0.00 100
20260507032559 46 124 0.0 0.0 0.00 0.08 0.00 100
20260507031014 46 124 0.0 0.0 0.00 0.08 0.00 100
20260507025429 46 125 0.0 0.0 0.00 0.08 0.00 100
20260507023843 46 125 0.0 0.0 0.00 0.08 0.00 100
20260507022258 46 125 0.0 0.0 0.00 0.08 0.00 100
20260507020713 46 125 0.0 0.0 0.00 0.08 0.00 100
20260507015127 46 125 0.0 0.0 0.00 0.08 0.00 100
20260507013542 46 125 0.0 0.0 0.00 0.08 0.00 100
20260507011957 46 125 0.0 0.0 0.00 0.08 0.00 100
20260507010411 46 125 0.0 0.0 0.00 0.08 0.00 100
20260507004826 46 125 0.0 0.0 0.00 0.08 0.00 100
20260507003240 44 125 0.0 0.0 0.00 0.07 0.00 100
20260507001655 44 125 0.0 0.0 0.00 0.07 0.00 100
20260507000109 44 125 0.0 0.0 0.00 0.07 0.00 100
20260506234524 44 125 0.0 0.0 0.00 0.07 0.00 100
20260506232939 42 125 0.0 0.0 0.00 0.06 0.00 100
20260506231353 44 125 0.0 0.0 0.00 0.07 0.00 100
20260506225807 44 125 0.0 0.0 0.00 0.07 0.00 100
20260506224222 44 126 0.0 0.0 0.00 0.07 0.00 100
20260506222637 44 126 0.0 0.0 0.00 0.07 0.00 100
20260506221051 44 126 0.0 0.0 0.00 0.07 0.00 100
20260506215506 44 126 0.0 0.0 0.00 0.07 0.00 100
20260506213921 46 126 0.0 0.0 0.00 0.08 0.00 100
20260506210750 46 126 0.0 0.0 0.00 0.08 0.00 100
20260506205205 46 126 0.0 0.0 0.00 0.08 0.00 100
20260506203619 46 126 0.0 0.0 0.00 0.08 0.00 100
20260506200449 46 127 0.0 0.0 0.00 0.08 0.00 100
20260506194904 46 127 0.0 0.0 0.00 0.08 0.00 100
20260506193319 48 127 0.0 0.0 0.00 0.09 0.00 100
20260506191734 48 127 0.0 0.0 0.00 0.09 0.00 100
20260506190149 50 127 0.0 0.0 0.00 0.10 0.00 100
20260506184604 50 127 0.0 0.0 0.00 0.10 0.00 100
20260506183020 50 128 0.0 0.0 0.00 0.10 0.00 100
20260506181435 51 131 0.0 0.0 0.00 0.11 0.00 100
20260506175850 51 138 0.0 0.0 0.00 0.11 0.00 100